Temperature
21 20 20 21 23 24 23 23 23 23 23 22 22 22 22 21 21 20 17 17 17 17 17 17 17 17 17 17 17 17 17 17 17 17 17 17 18 18 18 18 18 18 18 18 18 18 18 18 18
20 21 21 22 24 24 23 23 23 23 22 21 21 21 21 20 19 18 17 16 17 17 16 16 17 17 17 17 17 17 17 17 17 17 17 17 17 17 17 17 17 17 17 18 18 18 18 18 18
21 21 22 24 24 24 23 23 23 22 21 21 21 21 21 19 18 18 17 17 17 16 16 16 17 17 17 17 17 17 17 17 17 17 17 17 17 17 17 17 17 17 17 17 17 17 18 18 17
21 21 23 24 23 23 23 23 23 22 21 21 21 21 19 18 18 17 17 17 17 16 16 16 17 17 17 17 17 17 17 17 17 17 17 17 17 17 17 17 17 17 17 17 17 17 17 17 17
21 23 24 23 23 23 23 23 22 23 22 21 21 21 19 17 17 17 17 17 17 16 16 16 16 16 16 17 17 17 16 16 17 17 17 17 17 17 17 17 17 17 17 17 17 17 17 17 17
22 24 24 23 23 23 23 22 22 23 22 21 21 21 19 18 17 17 17 16 17 16 16 16 16 16 16 16 17 16 16 16 16 17 17 17 17 17 16 16 16 16 17 17 17 17 17 17 17
23 24 23 23 22 22 23 22 23 23 22 21 21 21 19 18 17 17 17 16 16 16 16 16 16 16 16 16 16 16 16 16 16 16 16 16 16 16 16 16 16 16 16 16 16 16 16 17 17
22 24 23 23 23 23 23 22 22 22 22 20 20 21 20 18 17 17 17 17 16 16 16 16 16 16 16 16 16 16 16 16 16 16 16 16 16 16 16 16 16 16 16 16 16 16 16 16 16
22 24 23 23 23 23 23 22 21 21 21 20 20 20 19 17 17 17 17 17 17 16 16 16 16 16 16 16 16 16 16 16 16 16 16 16 15 16 16 16 16 16 16 16 16 16 16 16 16
23 23 23 23 24 23 22 22 22 22 21 21 20 18 18 17 17 17 17 17 17 17 16 16 16 16 16 16 16 16 16 16 16 15 16 16 15 15 15 16 16 16 16 16 16 16 16 15 15
24 23 23 23 23 22 22 22 22 22 22 21 20 19 18 18 18 18 18 17 17 17 16 16 16 16 16 16 16 16 16 15 15 15 15 15 15 15 15 15 15 15 15 15 15 15 15 15 15
23 23 23 23 22 22 22 22 22 21 21 21 20 19 18 18 18 18 18 17 17 16 16 16 16 16 16 16 16 16 15 15 15 15 15 15 15 15 15 15 15 15 15 15 15 15 15 15 15
23 23 22 22 21 22 22 22 22 21 20 20 19 18 18 18 18 18 17 17 17 16 16 16 16 16 16 16 16 16 15 15 15 15 15 15 15 15 15 15 15 15 15 15 15 15 15 15 15
23 22 22 22 22 22 22 22 22 20 20 19 19 19 18 18 18 18 17 17 17 16 16 16 16 16 16 16 16 15 15 15 15 15 15 15 15 15 15 15 15 15 14 14 14 14 14 14 14
22 23 23 22 22 22 22 22 22 20 20 20 19 19 18 18 17 17 17 17 17 16 16 16 16 16 16 16 16 15 15 15 15 15 15 15 15 15 15 15 15 14 14 14 14 14 14 14 14
23 23 23 23 23 22 22 22 22 20 20 20 19 19 18 18 17 17 17 17 17 16 16 16 16 16 16 15 15 15 15 15 15 15 15 15 15 15 15 14 14 14 14 14 14 14 14 14 14
23 23 23 23 23 23 23 22 22 20 20 20 20 19 18 18 17 17 17 17 16 16 16 16 16 16 16 15 15 15 15 15 15 15 15 15 15 15 14 14 14 14 14 14 14 14 14 14 14
23 24 23 23 23 22 22 22 22 20 20 21 20 19 19 18 18 17 17 17 16 16 16 16 16 15 15 15 15 15 15 15 15 14 14 14 14 14 14 14 14 14 14 14 14 14 14 14 14
24 23 23 23 23 22 22 22 22 21 20 20 20 20 19 19 18 17 17 16 16 16 16 16 16 15 15 15 15 15 15 15 14 14 14 14 14 14 14 14 14 14 14 14 13 14 13 13 13
23 23 23 23 22 22 22 22 22 22 21 21 20 20 20 19 18 17 16 16 16 16 16 16 16 15 15 15 15 15 15 15 14 14 14 14 14 14 14 14 14 14 14 13 13 13 13 13 13
23 23 23 23 22 22 22 22 22 22 21 20 19 20 20 19 18 17 17 16 16 16 16 16 16 15 15 15 15 15 14 14 14 14 14 14 14 14 14 14 14 13 13 13 13 13 13 13 13
23 23 23 22 22 22 22 22 23 22 22 21 20 19 19 19 18 17 17 16 16 16 16 16 16 16 15 15 15 15 14 14 14 14 14 14 14 14 14 14 13 13 13 13 13 13 13 13 13
23 22 22 22 22 22 22 22 23 22 22 22 21 20 19 18 18 17 17 16 16 16 16 16 15 15 15 15 15 15 14 14 14 14 14 14 14 13 13 13 13 13 13 13 13 13 13 13 13
22 22 22 22 22 22 22 22 22 23 22 22 22 20 19 18 18 17 16 16 16 16 16 15 15 15 15 15 15 14 14 14 14 14 14 14 14 13 13 13 13 13 13 13 13 13 12 12 12
22 22 22 22 22 22 22 22 22 23 22 22 21 21 20 19 18 17 16 16 16 16 15 15 15 15 15 15 15 15 14 14 14 14 14 14 14 13 13 13 13 13 13 13 13 12 12 12 12
22 23 22 21 22 22 22 22 23 22 21 21 20 20 19 19 18 17 17 16 16 16 15 15 15 15 15 15 15 14 14 14 14 14 14 13 13 13 13 13 13 13 13 12 12 12 12 12 12
22 22 23 22 22 21 22 22 22 21 21 21 20 20 19 18 18 17 17 16 16 16 15 15 15 15 14 14 14 14 14 14 14 13 13 13 13 13 13 13 13 13 12 12 12 12 12 12 12
22 22 22 21 21 21 21 22 22 21 21 21 21 20 19 18 18 17 17 16 16 16 15 15 15 15 14 14 14 14 14 13 13 13 13 13 13 13 13 13 13 13 12 12 12 12 12 12 12
21 21 22 21 21 21 21 22 22 22 21 21 20 20 19 18 18 17 16 16 16 16 15 15 15 14 14 14 14 14 14 13 13 13 13 13 13 13 13 13 13 12 12 12 12 12 12 12 12
21 22 21 21 21 21 21 21 21 21 20 20 20 19 18 17 17 17 16 16 15 15 15 15 15 14 14 14 14 14 14 13 13 13 13 13 13 13 13 12 12 12 12 12 12 12 12 12 12
Wind_Speed
3 2 2 2 2 3 6 5 5 5 5 6 7 6 7 7 5 5 4 4 4 5 5 5 7 7 7 8 8 9 9 9 9 9 9 9 9 9 9 10 10 10 10 10 10 10 9 9 9
1 1 2 1 1 4 6 5 7 7 6 6 6 6 7 7 6 5 4 3 3 5 5 7 7 7 8 8 8 9 9 9 10 10 9 9 9 9 9 10 10 10 11 11 10 10 10 10 9
2 1 0 1 3 4 6 5 8 8 6 4 5 6 6 6 5 4 4 3 4 5 6 7 7 8 8 9 9 9 9 10 10 10 10 9 9 9 9 10 10 11 11 11 11 11 10 10 10
1 1 1 3 8 6 6 6 7 7 6 5 4 6 6 5 3 5 5 4 5 6 6 8 7 8 9 10 10 11 11 11 11 11 11 11 9 8 9 10 11 11 11 11 11 10 10 11 10
1 1 4 6 7 6 5 6 6 6 5 5 5 7 6 5 5 6 6 5 5 6 6 8 8 8 9 10 10 10 11 11 11 11 11 11 11 10 10 11 11 11 11 11 11 11 11 11 11
1 2 4 6 7 6 5 4 5 5 6 5 4 6 6 6 6 6 6 6 6 6 7 8 9 9 9 10 10 10 11 11 12 12 13 12 13 13 12 12 12 12 11 11 11 11 11 11 11
1 2 5 6 7 6 4 4 3 4 5 4 3 5 6 6 6 6 6 6 6 6 6 6 7 8 9 10 10 11 11 12 12 12 13 13 13 13 13 12 12 12 12 12 12 12 12 11 11
1 3 6 6 6 5 5 4 3 3 4 4 2 3 4 7 7 7 6 6 6 6 6 6 6 7 7 9 10 9 10 11 12 12 12 11 12 13 13 13 13 12 13 13 13 12 12 12 11
1 3 5 5 5 5 5 5 4 3 5 4 3 4 6 10 9 8 7 6 6 5 4 5 5 6 7 7 8 8 9 9 8 9 8 7 9 10 11 14 13 13 13 13 13 12 11 10 11
1 3 4 3 3 5 5 4 5 5 5 4 5 6 9 10 8 7 6 6 5 5 4 4 5 5 6 6 6 6 6 7 7 7 8 7 8 9 10 12 13 13 12 11 11 9 7 5 7
2 3 4 4 4 4 5 4 4 4 3 2 4 8 9 9 7 6 5 5 5 4 4 4 4 5 5 5 5 5 5 6 6 7 7 7 7 7 7 6 7 8 7 8 8 6 6 7 6
4 3 3 3 3 3 4 4 4 3 2 3 5 8 10 9 7 6 5 5 4 4 4 4 4 4 5 5 5 5 5 5 5 6 7 6 5 6 6 5 6 6 6 6 6 5 7 7 7
4 3 3 3 4 4 4 4 3 3 2 4 7 8 9 7 6 5 4 4 4 4 4 4 3 4 4 5 4 4 5 5 6 5 6 7 5 5 5 5 6 6 6 6 6 6 7 7 7
4 5 4 3 3 3 4 3 2 2 4 6 8 8 8 7 6 5 4 4 4 3 3 4 3 4 3 4 4 5 5 5 5 5 6 7 6 5 5 6 6 6 6 5 5 6 6 6 6
5 4 3 3 2 3 3 2 2 3 5 6 7 7 7 6 6 5 4 3 3 3 3 4 3 3 4 4 4 4 4 4 4 4 5 7 6 6 6 5 5 5 5 5 5 6 5 5 5
4 5 4 3 3 3 5 3 2 4 6 6 6 6 7 6 6 4 4 3 3 3 3 4 3 3 3 3 4 3 4 4 4 4 4 5 6 6 5 5 4 5 4 4 4 4 4 5 4
5 5 4 4 3 3 5 3 4 5 6 6 6 6 7 6 6 5 4 4 4 4 4 4 4 4 4 4 4 4 4 4 4 4 4 4 5 5 5 4 4 4 4 4 4 4 3 4 4
4 5 4 4 3 4 5 4 4 5 6 6 6 7 7 6 6 5 5 4 4 4 4 4 4 4 4 4 3 3 3 3 3 3 3 4 4 4 4 3 4 4 3 3 3 4 3 3 3
4 5 4 3 2 4 6 6 5 6 7 7 7 7 7 7 6 6 5 5 5 5 4 5 5 5 4 3 3 3 3 2 3 2 3 3 3 3 4 3 4 3 3 2 3 3 3 2 2
6 6 5 3 2 4 5 6 6 7 8 8 7 8 8 7 7 7 6 6 6 5 5 5 4 4 4 3 3 2 3 2 2 2 2 2 3 3 3 3 3 2 2 2 2 2 1 1 1
6 7 5 4 3 5 5 7 7 7 7 7 7 7 7 8 8 8 7 7 6 6 5 5 4 4 4 4 3 3 3 2 3 2 2 1 2 2 2 2 2 2 1 1 1 1 1 1 1
6 4 5 5 6 5 5 6 6 7 7 8 8 8 8 8 8 8 8 7 7 6 6 5 5 5 4 4 4 4 3 3 2 2 2 2 2 2 2 1 1 1 1 1 0 0 0 1 0
4 2 4 6 7 7 7 7 4 6 7 8 8 9 9 9 9 9 9 8 7 7 6 5 6 5 4 4 4 4 3 2 2 2 2 2 2 1 1 1 0 0 1 0 0 0 1 1 1
4 4 4 5 6 8 6 7 4 4 5 5 6 8 9 9 9 9 8 8 7 6 6 6 6 5 5 5 5 5 4 3 3 3 2 2 1 1 1 0 0 0 0 0 0 0 0 1 1
7 6 5 5 6 5 2 6 4 1 2 4 5 6 8 9 10 10 9 9 8 7 7 6 6 6 6 6 6 6 5 4 4 3 3 3 2 2 2 1 1 1 1 1 1 1 1 1 1
7 8 6 5 5 3 4 5 2 1 1 3 4 5 6 9 10 10 10 9 8 8 7 7 7 7 6 6 6 6 5 4 3 3 3 3 3 2 2 2 2 2 2 1 1 2 2 1 1
7 7 6 7 6 6 4 4 3 3 3 3 4 5 6 8 9 9 9 9 8 8 8 7 7 7 6 6 6 5 5 5 4 4 4 3 3 3 3 3 3 2 2 2 2 2 2 2 2
5 5 5 6 6 6 5 6 3 4 3 3 4 4 5 6 8 9 8 8 8 8 7 7 6 6 6 6 5 4 4 4 4 4 4 4 4 4 4 4 4 3 3 3 2 3 2 3 2
6 6 6 6 6 6 5 3 0 2 2 2 2 3 3 5 7 8 8 8 7 7 7 7 6 6 5 5 5 4 4 4 4 4 4 4 4 4 5 5 4 4 3 3 3 3 3 4 3
6 7 8 8 7 7 7 4 3 1 2 2 2 2 2 3 5 6 7 7 7 7 7 7 7 6 5 5 5 5 4 4 4 4 4 4 4 4 4 4 4 4 4 4 4 4 4 4 4
Wind_Direction
168 161 201 226 185 106 89 86 90 96 78 70 66 69 68 53 36 68 77 55 39 48 52 62 42 42 50 55 58 60 62 65 64 68 69 69 70 71 74 77 78 82 87 90 92 93 90 87 87
145 164 219 223 160 117 97 96 91 80 93 99 79 72 73 68 59 83 91 63 54 58 56 56 47 46 51 57 59 60 61 65 66 66 66 66 68 74 74 75 77 81 83 86 89 88 85 83 84
143 228 293 107 94 85 98 99 100 97 91 88 84 63 59 68 76 86 85 90 72 67 62 64 49 54 60 61 60 61 64 66 66 64 64 65 64 68 73 76 79 81 83 83 85 85 83 81 81
194 179 137 106 95 78 88 106 114 114 94 74 93 85 76 61 69 90 102 96 82 75 67 68 54 59 64 63 62 63 65 66 66 64 63 62 61 66 81 82 81 81 83 84 84 85 83 80 79
190 150 123 112 99 96 97 106 120 111 97 87 92 93 90 76 87 101 106 96 85 78 72 73 61 62 64 64 64 65 66 65 64 62 59 56 56 74 88 88 84 82 82 82 82 82 82 79 78
164 157 131 119 109 107 108 121 130 108 103 104 102 103 96 104 105 103 102 94 84 79 77 78 78 69 64 64 66 67 67 65 64 62 59 57 59 74 84 85 83 83 81 79 81 81 80 78 76
118 118 118 120 121 117 117 132 130 117 109 98 97 106 114 118 110 114 106 96 88 82 77 73 76 82 81 72 67 68 66 65 64 63 61 60 64 71 77 79 80 80 79 78 78 78 78 77 75
85 126 125 125 129 114 124 135 111 104 98 98 102 103 123 136 131 127 115 105 94 84 76 72 68 66 73 83 76 69 67 66 67 64 63 66 73 76 77 77 75 76 76 76 77 76 76 76 73
168 139 126 124 130 119 134 140 124 111 114 110 94 71 107 134 139 133 124 114 100 87 78 71 66 65 67 73 80 80 82 76 79 78 72 66 68 70 74 68 70 74 74 74 76 76 76 81 80
132 119 105 102 115 122 133 141 144 141 125 120 112 104 122 139 144 139 131 122 113 104 92 78 72 71 73 74 78 72 72 71 65 64 63 60 62 63 67 74 71 72 76 79 77 82 85 77 78
102 99 108 106 109 128 136 131 144 148 121 137 143 143 143 148 147 142 133 123 112 106 94 85 79 78 78 80 74 71 70 67 66 62 65 66 68 69 66 70 77 73 72 71 78 80 68 69 67
115 99 118 122 125 139 142 140 137 128 93 99 133 142 147 152 148 144 135 123 119 108 97 88 83 85 82 82 78 76 74 71 69 64 63 64 62 60 62 64 64 65 64 65 66 68 72 72 72
131 127 113 115 121 130 132 141 141 125 117 123 133 145 150 149 147 141 131 127 124 115 104 93 91 87 83 82 81 81 76 74 76 68 62 66 66 65 63 65 64 63 65 69 68 67 68 71 68
125 134 133 131 142 144 146 145 161 132 142 141 146 152 154 152 152 145 140 136 134 127 114 109 104 98 93 93 91 81 79 81 76 73 68 68 70 70 69 68 62 59 61 65 72 72 70 72 75
146 150 161 172 181 172 183 157 181 154 159 153 156 156 155 157 159 159 151 147 139 133 125 120 117 113 106 97 90 88 86 85 81 78 69 69 69 72 72 70 67 63 62 63 67 72 74 76 80
183 197 195 182 195 193 216 203 155 165 175 169 165 162 162 164 170 165 156 156 149 145 133 128 130 127 115 107 105 100 94 85 83 80 68 67 70 75 77 75 72 70 67 65 62 63 71 74 73
207 211 202 188 193 201 216 221 164 171 185 183 177 174 172 172 174 168 167 169 159 152 143 139 139 138 129 121 115 107 103 94 87 82 72 64 67 71 78 73 71 73 69 66 70 66 66 72 68
218 222 213 211 195 210 218 223 189 181 195 200 192 186 183 183 181 174 170 169 162 161 152 142 142 143 137 134 125 113 103 100 88 78 71 64 65 69 77 79 77 79 82 79 84 84 75 71 69
247 236 231 235 228 232 234 235 219 200 201 207 204 198 194 191 179 171 171 169 168 165 162 152 152 150 147 143 143 137 129 122 101 80 71 70 68 73 77 78 79 76 83 88 92 87 92 82 77
226 232 237 229 221 241 246 248 229 214 212 214 213 205 199 191 182 177 177 175 180 173 169 162 156 154 156 153 153 151 138 134 114 104 90 76 75 77 77 77 85 90 93 98 92 93 89 88 43
233 244 247 249 241 229 254 242 220 207 211 211 218 218 209 199 192 182 183 182 184 183 179 174 167 161 165 159 151 148 138 143 138 133 106 80 73 80 75 70 81 84 90 94 109 127 103 82 85
241 242 247 243 250 254 246 264 222 206 210 210 212 211 211 203 197 187 186 187 187 187 187 183 174 170 167 161 167 170 175 166 162 156 144 150 120 94 79 76 71 91 76 88 125 145 232 306 330
252 227 238 246 256 259 237 259 230 199 215 214 208 205 206 203 196 188 188 189 186 181 184 186 177 174 171 173 177 194 192 180 168 168 166 165 143 128 110 82 68 95 118 78 39 335 287 279 313
193 205 215 231 245 249 241 247 254 209 222 212 200 200 200 197 191 187 185 185 181 176 180 184 183 180 180 185 192 203 198 192 181 185 188 187 171 182 177 176 235 264 257 238 212 209 289 307 310
217 236 238 228 227 242 218 245 254 261 242 229 216 202 195 190 187 186 183 184 181 179 182 186 187 186 189 195 202 207 209 209 207 204 206 210 201 209 220 205 216 229 252 258 244 239 268 268 277
224 239 250 260 258 256 219 243 237 231 242 216 203 197 189 187 186 186 187 187 186 184 185 189 191 193 195 204 210 211 210 215 219 213 215 219 224 226 226 215 217 222 231 233 226 255 264 271 259
224 229 252 264 270 267 241 238 230 169 173 177 177 177 180 186 187 191 191 192 190 189 190 193 193 196 199 206 211 211 213 215 220 220 219 224 230 231 230 219 219 222 221 230 223 237 246 257 272
249 213 217 237 253 254 248 244 228 172 176 179 188 190 188 189 191 192 194 195 195 194 194 194 198 199 199 203 205 206 213 214 220 225 224 223 224 226 222 219 218 219 215 219 224 243 258 245 242
201 210 225 237 249 259 259 240 150 201 209 219 212 204 202 196 193 193 195 195 196 193 190 190 194 197 196 201 202 202 207 212 216 220 226 225 223 225 222 219 221 222 223 221 214 236 243 247 243
243 239 230 241 238 243 264 261 112 193 238 237 226 201 203 202 199 197 195 191 190 191 191 191 190 191 194 197 198 199 200 204 209 214 217 221 224 225 227 221 226 230 233 233 226 227 238 245 247
Height
1503 1502 1503 1504 1503 1502 1508 1509 1506 1508 1510 1513 1513 1512 1512 1515 1517 1524 1525 1523 1523 1522 1521 1519 1518 1517 1516 1515 1514 1513 1513 1512 1511 1510 1509 1508 1508 1507 1506 1506 1505 1505 1505 1506 1507 1508 1509 1509 1510
1503 1503 1505 1504 1502 1508 1512 1508 1509 1510 1513 1515 1515 1515 1515 1519 1521 1523 1524 1523 1523 1523 1522 1521 1519 1518 1517 1516 1516 1515 1514 1513 1512 1511 1510 1509 1509 1508 1508 1507 1507 1507 1507 1508 1509 1509 1510 1510 1511
1503 1504 1506 1502 1504 1508 1512 1510 1510 1514 1515 1515 1516 1517 1519 1522 1524 1524 1525 1524 1524 1524 1523 1522 1521 1520 1519 1518 1517 1516 1515 1514 1513 1512 1512 1510 1509 1508 1508 1508 1509 1509 1509 1509 1510 1511 1511 1512 1512
1505 1506 1506 1504 1509 1510 1509 1510 1512 1514 1516 1517 1517 1519 1522 1525 1525 1526 1525 1526 1526 1525 1524 1523 1522 1521 1520 1520 1519 1518 1517 1516 1515 1514 1513 1511 1508 1506 1507 1509 1510 1511 1511 1511 1512 1512 1513 1513 1513
1505 1505 1504 1508 1510 1511 1511 1512 1513 1514 1516 1518 1518 1520 1524 1526 1526 1526 1526 1527 1527 1526 1526 1525 1523 1522 1522 1521 1520 1519 1519 1518 1517 1516 1514 1511 1506 1501 1504 1509 1511 1512 1513 1513 1514 1514 1514 1514 1514
1507 1504 1507 1511 1512 1512 1512 1514 1515 1515 1517 1519 1520 1521 1525 1527 1527 1527 1528 1528 1528 1528 1527 1526 1525 1524 1523 1523 1522 1521 1520 1519 1518 1517 1516 1513 1508 1505 1507 1511 1513 1514 1515 1515 1515 1516 1516 1516 1516
1507 1504 1508 1510 1513 1513 1514 1515 1515 1516 1517 1520 1521 1522 1525 1527 1528 1528 1529 1529 1529 1529 1528 1528 1528 1526 1525 1524 1524 1523 1522 1521 1521 1519 1518 1516 1514 1512 1513 1515 1516 1516 1517 1517 1517 1517 1517 1518 1518
1507 1507 1509 1510 1513 1514 1515 1516 1517 1518 1519 1522 1523 1522 1525 1528 1528 1529 1530 1530 1530 1530 1530 1530 1529 1529 1528 1527 1526 1525 1524 1524 1523 1522 1521 1519 1519 1518 1518 1518 1518 1519 1519 1519 1519 1519 1519 1519 1519
1508 1508 1511 1512 1513 1514 1515 1516 1519 1520 1521 1523 1524 1525 1527 1528 1529 1530 1530 1531 1531 1531 1531 1531 1531 1530 1529 1529 1528 1527 1526 1526 1525 1524 1523 1523 1523 1522 1522 1521 1521 1520 1520 1520 1520 1521 1521 1521 1521
1508 1509 1511 1511 1511 1513 1516 1516 1518 1520 1521 1523 1525 1526 1527 1528 1529 1530 1531 1532 1532 1532 1532 1532 1532 1531 1531 1530 1530 1529 1529 1528 1528 1527 1526 1526 1525 1524 1524 1523 1523 1522 1522 1522 1522 1522 1523 1522 1523
1509 1510 1512 1513 1514 1515 1516 1518 1519 1519 1520 1522 1524 1526 1527 1529 1530 1531 1532 1532 1533 1533 1533 1533 1533 1533 1533 1532 1532 1531 1530 1530 1530 1529 1529 1528 1528 1527 1527 1526 1526 1525 1525 1525 1524 1525 1525 1524 1525
1511 1513 1513 1515 1516 1516 1516 1518 1519 1520 1522 1523 1524 1526 1527 1529 1530 1531 1532 1533 1534 1534 1534 1534 1534 1534 1534 1534 1533 1533 1533 1532 1532 1532 1531 1531 1530 1530 1529 1528 1528 1527 1527 1526 1526 1526 1526 1526 1527
1512 1514 1515 1516 1517 1517 1518 1518 1520 1522 1523 1524 1525 1526 1528 1529 1531 1532 1533 1534 1534 1535 1535 1535 1535 1535 1535 1535 1535 1535 1534 1534 1534 1533 1533 1533 1532 1532 1531 1531 1530 1529 1529 1528 1528 1528 1528 1528 1528
1513 1514 1515 1516 1517 1518 1518 1519 1520 1522 1523 1524 1525 1527 1528 1529 1531 1532 1533 1534 1534 1535 1536 1536 1536 1536 1536 1536 1536 1536 1536 1535 1535 1535 1535 1535 1534 1534 1533 1533 1532 1531 1531 1530 1530 1530 1530 1530 1530
1514 1514 1515 1516 1516 1517 1518 1519 1520 1522 1523 1524 1525 1527 1528 1530 1531 1532 1533 1534 1535 1535 1536 1536 1536 1537 1537 1537 1537 1537 1537 1537 1537 1537 1537 1536 1536 1535 1535 1534 1534 1533 1533 1533 1532 1532 1531 1531 1531
1511 1512 1515 1514 1515 1516 1519 1520 1519 1522 1523 1524 1525 1527 1528 1530 1531 1532 1533 1534 1535 1536 1536 1536 1536 1537 1537 1538 1538 1538 1538 1538 1538 1538 1538 1538 1537 1537 1536 1536 1535 1535 1534 1534 1534 1533 1533 1533 1533
1511 1512 1514 1514 1514 1515 1515 1517 1518 1521 1522 1523 1525 1526 1528 1529 1531 1532 1533 1534 1535 1536 1536 1536 1537 1537 1538 1538 1538 1538 1539 1538 1539 1539 1538 1539 1539 1538 1538 1537 1537 1536 1536 1536 1535 1535 1535 1535 1534
1511 1509 1511 1512 1512 1513 1514 1514 1516 1519 1521 1521 1523 1525 1526 1528 1530 1531 1532 1533 1534 1535 1536 1537 1537 1537 1538 1538 1539 1539 1539 1539 1539 1539 1539 1539 1539 1539 1539 1538 1538 1538 1537 1537 1537 1536 1536 1536 1536
1506 1508 1510 1510 1510 1513 1513 1513 1513 1516 1518 1519 1521 1523 1524 1526 1529 1530 1531 1532 1534 1535 1535 1536 1537 1537 1538 1538 1538 1539 1539 1539 1540 1539 1540 1540 1540 1539 1539 1539 1539 1538 1538 1538 1538 1537 1537 1537 1537
1507 1509 1509 1510 1510 1511 1511 1510 1510 1513 1515 1517 1518 1520 1522 1524 1527 1529 1530 1531 1532 1534 1535 1536 1536 1537 1538 1538 1539 1539 1539 1540 1540 1540 1540 1540 1540 1540 1540 1540 1539 1539 1538 1538 1538 1538 1538 1538 1538
1506 1507 1507 1510 1510 1509 1511 1510 1508 1510 1512 1515 1517 1518 1520 1522 1524 1526 1528 1529 1531 1532 1533 1534 1535 1536 1537 1537 1538 1538 1539 1540 1540 1540 1540 1540 1540 1540 1540 1540 1540 1539 1539 1539 1538 1538 1538 1538 1538
1507 1505 1507 1509 1510 1509 1511 1512 1505 1505 1508 1511 1513 1515 1517 1520 1522 1524 1526 1528 1529 1531 1532 1534 1535 1535 1536 1537 1537 1538 1539 1539 1540 1540 1540 1540 1540 1540 1540 1540 1540 1539 1539 1539 1538 1538 1538 1538 1539
1504 1506 1507 1507 1507 1508 1507 1510 1501 1502 1504 1505 1508 1512 1514 1517 1519 1522 1524 1526 1528 1529 1531 1532 1534 1535 1535 1536 1537 1538 1538 1539 1539 1540 1540 1540 1540 1540 1540 1540 1540 1539 1539 1539 1538 1538 1538 1538 1538
1506 1507 1506 1505 1505 1511 1504 1508 1503 1497 1499 1501 1505 1508 1511 1514 1517 1519 1522 1524 1526 1528 1529 1531 1532 1533 1534 1535 1536 1537 1537 1538 1538 1539 1539 1539 1539 1539 1539 1539 1539 1539 1539 1538 1538 1538 1538 1537 1537
1504 1506 1510 1511 1511 1507 1502 1506 1501 1496 1498 1500 1503 1506 1508 1511 1514 1517 1520 1522 1524 1526 1527 1529 1530 1531 1532 1533 1534 1535 1536 1536 1537 1537 1538 1538 1538 1538 1538 1538 1538 1538 1538 1538 1537 1537 1537 1537 1537
1501 1502 1511 1516 1511 1504 1503 1503 1496 1497 1499 1501 1503 1505 1507 1509 1512 1515 1517 1519 1522 1523 1525 1527 1528 1529 1530 1531 1532 1533 1534 1535 1535 1536 1536 1536 1537 1537 1537 1537 1537 1537 1537 1537 1537 1537 1537 1536 1536
1501 1500 1499 1504 1505 1508 1500 1497 1495 1496 1498 1500 1502 1504 1506 1508 1510 1513 1515 1517 1519 1521 1523 1525 1526 1527 1528 1529 1530 1531 1532 1532 1533 1534 1534 1534 1535 1535 1536 1536 1536 1536 1536 1536 1536 1536 1536 1535 1535
1498 1497 1502 1505 1512 1511 1504 1499 1495 1495 1497 1498 1500 1502 1504 1506 1509 1511 1513 1515 1517 1519 1521 1522 1524 1525 1526 1527 1528 1528 1529 1530 1530 1531 1532 1532 1532 1533 1533 1534 1534 1534 1534 1534 1534 1534 1534 1534 1534
1500 1500 1499 1501 1502 1508 1508 1500 1491 1493 1495 1497 1499 1501 1503 1505 1507 1508 1510 1512 1514 1516 1518 1520 1521 1522 1524 1525 1525 1526 1526 1527 1528 1528 1529 1529 1530 1530 1531 1531 1532 1532 1532 1533 1532 1532 1532 1532 1532
1496 1495 1497 1503 1502 1502 1504 1500 1491 1494 1496 1497 1498 1500 1502 1503 1505 1506 1508 1510 1512 1513 1515 1517 1518 1520 1521 1522 1523 1524 1524 1525 1525 1526 1526 1527 1527 1528 1528 1529 1529 1530 1530 1530 1530 1530 1530 1530 1530